Location: *
(51.5000°N, 0.1100°W)
Time: 20:53:26
(UTC+00:00)

Cosmos 1703 Rocket - Pass Details

Date: 25 May 2024
Orbit: 602 x 629 km, 82.5° (Epoch: 16 June)

Event Time Altitude Azimuth Distance (km) Brightness Sun altitude
Exits shadow 01:31:32 24° 193° (SSW) 1,292 4.6 -14.6°
Maximum altitude 01:34:10 84° 280° (W) 637 3.5 -14.4°
Drops below altitude 10° 01:38:39 10° 10° (N) 2,019 7.5 -14.2°
Sets 01:40:54 0° 11° (N) 2,933 8.7 -14.0°
